Regional Weather Roundup
Issued by NWS Glasgow, MT

Home | Current Version | Previous Version | Text Only | Print | Product List | Glossary On
Versions: 1 2 3 4 5 6 7 8 9 10 11 12 13 14 15 16 17 18 19 20 21 22 23 24 25 26 27 28 29 30 31 32 33 34 35 36 37 38 39 40 41 42 43 44 45 46 47 48
000
ASUS45 KGGW 100415
RWRGGW
HOURLY WEATHER ROUNDUP FOR NORTHEAST MONTANA
NATIONAL WEATHER SERVICE GLASGOW MONTANA
1000 PM MDT WED JUL 09 2014

NOTE: "FAIR" INDICATES FEW OR NO CLOUDS BELOW 12,000 FEET WITH NO
SIGNIFICANT WEATHER AND/OR OBSTRUCTIONS TO VISISBILITY.

NORTHEAST MONTANA


CITY           SKY/WX    TMP DP  RH WIND       PRES   REMARKS
GLASGOW        CLEAR     73  53  49 E12       29.76F
PLENTYWOOD       N/A     68  60  75 E3G12       N/A
WOLF POINT     PTCLDY    71  53  52 E3        29.80R
JORDAN           N/A     78  51  38 SE12      29.78S
WINNETT          N/A     78  55  44 SW12        N/A
SIDNEY         CLEAR     70  55  60 S5        29.87S
GLENDIVE       CLEAR     75  54  46 SE8       29.86S
MALTA            N/A     77  55  46 SE7         N/A
SCOBEY           N/A     69  53  56 E12       29.83S

FORT PECK REPORTS


CITY           SKY/WX    TMP DP  RH WIND       PRES   REMARKS
FORT PECK        N/A     78  52  40 E20         N/A
THE PINES        N/A     77  53  43 SE10        N/A

SOUTHEAST MONTANA


CITY           SKY/WX    TMP DP  RH WIND       PRES   REMARKS
BILLINGS       CLOUDY    81  54  39 SW9       29.83F
MILES CITY     CLEAR     78  52  40 SE12      29.83R
BAKER          CLEAR     70  54  56 SE13      29.93R
LIVINGSTON     MOCLDY    77  45  32 SW15      29.95R

CENTRAL MONTANA


CITY           SKY/WX    TMP DP  RH WIND       PRES   REMARKS
HAVRE          PTCLDY    76  49  38 MISG      29.72S
LEWISTOWN      CLOUDY    76  53  44 SW12      29.86S
GREAT FALLS    CLOUDY    77  43  29 SW10      29.82R
CUT BANK       MOCLDY    70  50  49 SW7       29.81S
HELENA         CLOUDY    82  45  27 W13       29.88R
BUTTE          RAIN      59  54  83 SE13      30.08F
BOZEMAN        CLOUDY    74  50  42 W7        29.99R

WESTERN MONTANA


CITY           SKY/WX    TMP DP  RH WIND       PRES   REMARKS
MISSOULA       PTCLDY    77  46  33 NE3       29.86S
KALISPELL      NOT AVBL

NORTH DAKOTA


CITY           SKY/WX    TMP DP  RH WIND       PRES   REMARKS
WILLISTON      CLEAR     74  58  57 SE10      29.86R
DICKINSON      CLEAR     64  57  78 SE10      29.92R
MINOT          CLEAR     66  59  78 SE6       29.90F
BISMARCK       CLEAR     64  59  83 E6        29.95S

SOUTHERN SASKATCHEWAN


CITY           SKY/WX    TMP DP  RH WIND       PRES   REMARKS
REGINA         CLEAR     68  61  77 SE16      29.80S
ESTEVAN        PTCLDY    68  61  77 SE9       29.87F
SWIFT CURRENT  PTCLDY    68  55  64 S14G20    29.71F




USA.gov is the U.S. government's official web portal to all federal, state and local government web resources and services.